Time,TemperatureF,DewpointF,PressureIn,WindDirection,WindDirectionDegrees,WindSpeedMPH,WindSpeedGustMPH,Humidity,HourlyPrecipIn,Conditions,Clouds,dailyrainin,SolarRadiationWatts/m^2,SoftwareType,DateUTC
2013-05-11 00:01:00,66.0,33.0,-100.00,NNE,22,4.0,6.0,29,0.00,,,0.00,0.000000,,2013-05-11 07:01:00,
2013-05-11 00:11:00,66.0,33.0,-100.00,NNE,22,4.0,6.0,29,0.00,,,0.00,0.000000,,2013-05-11 07:11:00,
2013-05-11 00:21:00,66.0,33.0,-100.00,NNE,22,4.0,6.0,29,0.00,,,0.00,0.000000,,2013-05-11 07:21:00,
2013-05-11 00:52:00,64.0,37.0,-100.00,North,9,4.0,6.0,37,0.00,,,0.00,0.000000,,2013-05-11 07:52:00,
2013-05-11 01:01:00,64.0,37.0,-100.00,North,9,4.0,6.0,37,0.00,,,0.00,0.000000,,2013-05-11 08:01:00,
2013-05-11 01:12:00,64.0,37.0,-100.00,North,9,4.0,6.0,37,0.00,,,0.00,0.000000,,2013-05-11 08:12:00,
2013-05-11 01:21:00,64.0,37.0,-100.00,North,9,4.0,6.0,37,0.00,,,0.00,0.000000,,2013-05-11 08:21:00,
2013-05-11 01:52:00,65.0,44.0,-100.00,NNE,27,4.0,6.0,46,0.00,,,0.00,0.000000,,2013-05-11 08:52:00,
2013-05-11 02:01:00,65.0,44.0,-100.00,NNE,27,4.0,6.0,46,0.00,,,0.00,0.000000,,2013-05-11 09:01:00,
2013-05-11 02:11:00,65.0,44.0,-100.00,NNE,27,4.0,6.0,46,0.00,,,0.00,0.000000,,2013-05-11 09:11:00,
2013-05-11 02:21:00,65.0,44.0,-100.00,NNE,27,4.0,6.0,46,0.00,,,0.00,0.000000,,2013-05-11 09:21:00,
2013-05-11 02:52:00,66.0,34.0,-100.00,NNE,32,5.0,7.0,31,0.00,,,0.00,0.000000,,2013-05-11 09:52:00,
2013-05-11 03:03:00,66.0,34.0,-100.00,NNE,32,5.0,7.0,31,0.00,,,0.00,0.000000,,2013-05-11 10:03:00,
2013-05-11 03:12:00,66.0,34.0,-100.00,NNE,32,5.0,7.0,31,0.00,,,0.00,0.000000,,2013-05-11 10:12:00,
2013-05-11 03:22:00,66.0,34.0,-100.00,NNE,32,5.0,7.0,31,0.00,,,0.00,0.000000,,2013-05-11 10:22:00,
2013-05-11 05:52:00,69.0,30.0,-100.00,NE,39,6.0,8.0,23,0.00,,,-99.99,0.000000,,2013-05-11 12:52:00,
2013-05-11 06:01:00,69.0,30.0,-100.00,NE,39,6.0,8.0,23,0.00,,,-99.99,0.000000,,2013-05-11 13:01:00,
2013-05-11 06:11:00,69.0,30.0,-100.00,NE,39,6.0,8.0,23,0.00,,,-99.99,0.000000,,2013-05-11 13:11:00,
2013-05-11 06:21:00,69.0,30.0,-100.00,NE,39,6.0,8.0,23,0.00,,,-99.99,0.000000,,2013-05-11 13:21:00,
2013-05-11 06:52:00,70.0,34.0,-100.00,NE,47,7.0,10.0,26,0.00,,,0.00,5.000000,,2013-05-11 13:52:00,
2013-05-11 07:02:00,70.0,34.0,-100.00,NE,47,7.0,10.0,26,0.00,,,0.00,5.000000,,2013-05-11 14:02:00,
2013-05-11 07:11:00,70.0,34.0,-100.00,NE,47,7.0,10.0,26,0.00,,,0.00,5.000000,,2013-05-11 14:11:00,
2013-05-11 07:21:00,70.0,34.0,-100.00,NE,47,7.0,10.0,26,0.00,,,0.00,5.000000,,2013-05-11 14:21:00,
2013-05-11 07:52:00,73.0,43.0,-100.00,NE,54,5.0,9.0,34,0.00,,,0.00,82.000000,,2013-05-11 14:52:00,
2013-05-11 08:01:00,73.0,43.0,-100.00,NE,54,5.0,9.0,34,0.00,,,0.00,82.000000,,2013-05-11 15:01:00,
2013-05-11 08:11:00,73.0,43.0,-100.00,NE,54,5.0,9.0,34,0.00,,,0.00,82.000000,,2013-05-11 15:11:00,
2013-05-11 08:53:00,77.0,45.0,-100.00,NE,45,4.0,9.0,32,0.00,,,0.00,312.000000,,2013-05-11 15:53:00,
2013-05-11 09:02:00,77.0,45.0,-100.00,NE,45,4.0,9.0,32,0.00,,,0.00,312.000000,,2013-05-11 16:02:00,
2013-05-11 09:12:00,77.0,45.0,-100.00,NE,45,4.0,9.0,32,0.00,,,0.00,312.000000,,2013-05-11 16:12:00,
2013-05-11 09:22:00,77.0,45.0,-100.00,NE,45,4.0,9.0,32,0.00,,,0.00,312.000000,,2013-05-11 16:22:00,
2013-05-11 09:53:00,78.0,45.0,-100.00,NE,48,5.0,9.0,31,0.00,,,0.00,586.000000,,2013-05-11 16:53:00,
2013-05-11 10:02:00,78.0,45.0,-100.00,NE,48,5.0,9.0,31,0.00,,,0.00,586.000000,,2013-05-11 17:02:00,
2013-05-11 10:12:00,78.0,45.0,-100.00,NE,48,5.0,9.0,31,0.00,,,0.00,586.000000,,2013-05-11 17:12:00,
2013-05-11 10:22:00,78.0,45.0,-100.00,NE,48,5.0,9.0,31,0.00,,,0.00,586.000000,,2013-05-11 17:22:00,
2013-05-11 10:52:00,80.0,46.0,-100.00,SW,226,5.0,8.0,30,0.00,,,0.00,792.000000,,2013-05-11 17:52:00,
2013-05-11 11:01:00,80.0,46.0,-100.00,SW,226,5.0,8.0,30,0.00,,,0.00,792.000000,,2013-05-11 18:01:00,
2013-05-11 11:11:00,80.0,46.0,-100.00,SW,226,5.0,8.0,30,0.00,,,0.00,792.000000,,2013-05-11 18:11:00,
2013-05-11 11:21:00,80.0,46.0,-100.00,SW,226,5.0,8.0,30,0.00,,,0.00,792.000000,,2013-05-11 18:21:00,
2013-05-11 11:52:00,79.0,46.0,-100.00,WNW,286,7.0,11.0,31,0.00,,,0.00,955.000000,,2013-05-11 18:52:00,
2013-05-11 12:02:00,79.0,46.0,-100.00,WNW,286,7.0,11.0,31,0.00,,,0.00,955.000000,,2013-05-11 19:02:00,
2013-05-11 12:11:00,79.0,46.0,-100.00,WNW,286,7.0,11.0,31,0.00,,,0.00,955.000000,,2013-05-11 19:11:00,
2013-05-11 12:21:00,79.0,46.0,-100.00,WNW,286,7.0,11.0,31,0.00,,,0.00,955.000000,,2013-05-11 19:21:00,
2013-05-11 12:52:00,80.0,47.0,-100.00,WNW,291,7.0,13.0,32,0.00,,,0.00,1061.000000,,2013-05-11 19:52:00,
2013-05-11 13:01:00,80.0,47.0,-100.00,WNW,291,7.0,13.0,32,0.00,,,0.00,1061.000000,,2013-05-11 20:01:00,
2013-05-11 13:12:00,80.0,47.0,-100.00,WNW,291,7.0,13.0,32,0.00,,,0.00,1061.000000,,2013-05-11 20:12:00,
2013-05-11 13:22:00,80.0,47.0,-100.00,WNW,291,7.0,13.0,32,0.00,,,0.00,1061.000000,,2013-05-11 20:22:00,
2013-05-11 13:52:00,81.0,50.0,-100.00,West,274,8.0,13.0,34,0.00,,,0.00,1096.000000,,2013-05-11 20:52:00,
2013-05-11 14:02:00,81.0,50.0,-100.00,West,274,8.0,13.0,34,0.00,,,0.00,1096.000000,,2013-05-11 21:02:00,
2013-05-11 14:11:00,81.0,50.0,-100.00,West,274,8.0,13.0,34,0.00,,,0.00,1096.000000,,2013-05-11 21:11:00,
2013-05-11 14:21:00,81.0,50.0,-100.00,West,274,8.0,13.0,34,0.00,,,0.00,1096.000000,,2013-05-11 21:21:00,
2013-05-11 14:52:00,80.0,47.0,-100.00,West,265,11.0,16.0,32,0.00,,,-99.99,1067.000000,,2013-05-11 21:52:00,
2013-05-11 15:02:00,80.0,47.0,-100.00,West,265,11.0,16.0,32,0.00,,,-99.99,1067.000000,,2013-05-11 22:02:00,
2013-05-11 15:12:00,80.0,47.0,-100.00,West,265,11.0,16.0,32,0.00,,,-99.99,1067.000000,,2013-05-11 22:12:00,
2013-05-11 15:22:00,80.0,47.0,-100.00,West,265,11.0,16.0,32,0.00,,,-99.99,1067.000000,,2013-05-11 22:22:00,
2013-05-11 15:52:00,80.0,46.0,-100.00,West,267,9.0,16.0,30,0.00,,,0.00,976.000000,,2013-05-11 22:52:00,
2013-05-11 16:02:00,80.0,46.0,-100.00,West,267,9.0,16.0,30,0.00,,,0.00,976.000000,,2013-05-11 23:02:00,
2013-05-11 16:11:00,80.0,46.0,-100.00,West,267,9.0,16.0,30,0.00,,,0.00,976.000000,,2013-05-11 23:11:00,
2013-05-11 16:21:00,80.0,46.0,-100.00,West,267,9.0,16.0,30,0.00,,,0.00,976.000000,,2013-05-11 23:21:00,
2013-05-11 16:52:00,79.0,44.0,-100.00,West,264,9.0,16.0,29,0.00,,,0.00,818.000000,,2013-05-11 23:52:00,
2013-05-11 17:01:00,79.0,44.0,-100.00,West,264,9.0,16.0,29,0.00,,,0.00,818.000000,,2013-05-12 00:01:00,
2013-05-11 17:11:00,79.0,44.0,-100.00,West,264,9.0,16.0,29,0.00,,,0.00,818.000000,,2013-05-12 00:11:00,
2013-05-11 17:21:00,79.0,44.0,-100.00,West,264,9.0,16.0,29,0.00,,,0.00,818.000000,,2013-05-12 00:21:00,
2013-05-11 17:52:00,79.0,45.0,-100.00,West,266,8.0,14.0,30,0.00,,,0.00,534.000000,,2013-05-12 00:52:00,
2013-05-11 18:01:00,79.0,45.0,-100.00,West,266,8.0,14.0,30,0.00,,,0.00,534.000000,,2013-05-12 01:01:00,
2013-05-11 18:11:00,79.0,45.0,-100.00,West,266,8.0,14.0,30,0.00,,,0.00,534.000000,,2013-05-12 01:11:00,
2013-05-11 18:21:00,79.0,45.0,-100.00,West,266,8.0,14.0,30,0.00,,,0.00,534.000000,,2013-05-12 01:21:00,
2013-05-11 18:52:00,76.0,42.0,-100.00,WSW,258,7.0,12.0,30,0.00,,,-99.99,359.000000,,2013-05-12 01:52:00,
2013-05-11 19:01:00,76.0,42.0,-100.00,WSW,258,7.0,12.0,30,0.00,,,-99.99,359.000000,,2013-05-12 02:01:00,
2013-05-11 19:11:00,76.0,42.0,-100.00,WSW,258,7.0,12.0,30,0.00,,,-99.99,359.000000,,2013-05-12 02:11:00,
2013-05-11 19:22:00,76.0,42.0,-100.00,WSW,258,7.0,12.0,30,0.00,,,-99.99,359.000000,,2013-05-12 02:22:00,
2013-05-11 19:52:00,73.0,44.0,-100.00,WSW,239,5.0,8.0,36,0.00,,,0.00,113.000000,,2013-05-12 02:52:00,
2013-05-11 20:01:00,73.0,44.0,-100.00,WSW,239,5.0,8.0,36,0.00,,,0.00,113.000000,,2013-05-12 03:01:00,
2013-05-11 20:11:00,73.0,44.0,-100.00,WSW,239,5.0,8.0,36,0.00,,,0.00,113.000000,,2013-05-12 03:11:00,
2013-05-11 20:21:00,73.0,44.0,-100.00,WSW,239,5.0,8.0,36,0.00,,,0.00,113.000000,,2013-05-12 03:21:00,
2013-05-11 20:53:00,70.0,42.0,-100.00,SW,229,6.0,8.0,36,0.00,,,0.00,14.000000,,2013-05-12 03:53:00,
2013-05-11 21:02:00,-999.0,-99.9,-100.00,SW,229,6.0,8.0,36,0.00,,,0.00,14.000000,,2013-05-12 04:02:00,
2013-05-11 21:12:00,70.0,42.0,-100.00,SW,229,6.0,8.0,36,0.00,,,0.00,14.000000,,2013-05-12 04:12:00,
2013-05-11 21:22:00,70.0,42.0,-100.00,SW,229,6.0,8.0,36,0.00,,,0.00,14.000000,,2013-05-12 04:22:00,
2013-05-11 21:52:00,69.0,36.0,-100.00,SW,217,6.0,9.0,30,0.00,,,0.00,0.000000,,2013-05-12 04:52:00,
2013-05-11 22:02:00,69.0,36.0,-100.00,SW,217,6.0,9.0,30,0.00,,,0.00,0.000000,,2013-05-12 05:02:00,
2013-05-11 22:11:00,69.0,36.0,-100.00,SW,217,6.0,9.0,30,0.00,,,0.00,0.000000,,2013-05-12 05:11:00,
2013-05-11 22:21:00,69.0,36.0,-100.00,SW,217,6.0,9.0,30,0.00,,,0.00,0.000000,,2013-05-12 05:21:00,
2013-05-11 22:52:00,68.0,31.0,-100.00,SW,226,4.0,9.0,25,0.00,,,0.00,0.000000,,2013-05-12 05:52:00,
2013-05-11 23:01:00,68.0,31.0,-100.00,SW,226,4.0,9.0,25,0.00,,,0.00,0.000000,,2013-05-12 06:01:00,
2013-05-11 23:11:00,68.0,31.0,-100.00,SW,226,4.0,9.0,25,0.00,,,0.00,0.000000,,2013-05-12 06:11:00,
2013-05-11 23:21:00,68.0,31.0,-100.00,SW,226,4.0,9.0,25,0.00,,,0.00,0.000000,,2013-05-12 06:21:00,
2013-05-11 23:52:00,66.0,28.0,-100.00,WNW,284,5.0,7.0,24,0.00,,,0.00,0.000000,,2013-05-12 06:52:00,